Regional Weather Roundup
Issued by NWS Charleston, SC

Current Version | Previous Version | Graphics & Text | Print | Product List | Glossary On
Versions: 1 2 3 4 5 6 7 8 9 10 11 12 13 14 15 16 17 18 19 20 21 22 23 24 25 26 27 28 29 30 31 32 33 34 35 36 37 38 39 40 41 42 43 44 45 46 47 48 49 50
000
ASUS42 KCHS 280512
RWRCHS

REGIONAL WEATHER ROUNDUP
NATIONAL WEATHER SERVICE CHARLESTON SC
100 AM EDT WED JUN 28 2017

NOTE: "FAIR" INDICATES FEW OR NO CLOUDS BELOW 12,000 FEET WITH NO
SIGNIFICANT WEATHER AND/OR OBSTRUCTIONS TO VISIBILITY.

NOT ALL STATIONS ARE QUALITY CONTROLLED. USE DATA WITH CAUTION...
ESPECIALLY DEWPOINT OBSERVATIONS.

SCZ027-030-031-034>040-042>050-280600-
...SOUTHEAST SOUTH CAROLINA...

CITY           SKY/WX    TMP DP  RH WIND       PRES   REMARKS
N CHARLESTON   CLOUDY    73  66  78 CALM      30.06S
WATERFRONT PRK   N/A     78  70  76 CALM      30.04S
JOHNS ISLAND     N/A     72  70  94 CALM      30.06S
PINOPOLIS        N/A     75  70  83 CALM      30.00S
MONCKS CORNER  FAIR      68  66  94 CALM      30.07S
SUMMERVILLE    FAIR      70  68  94 CALM      30.08S
BEAUFORT MCAS  CLOUDY    76  73  91 CALM      30.06S
BEAUFORT ARPT  FAIR      77  70  78 CALM      30.06R
HILTON HEAD IS CLOUDY    75  73  94 CALM      30.06S
WALTERBORO     CLOUDY    68  66  94 CALM      30.08S
ALLENDALE      FAIR      72  70  94 CALM      30.06S

...SOUTHERN MIDLANDS AND PEE DEE...

CITY           SKY/WX    TMP DP  RH WIND       PRES   REMARKS
GEORGETOWN     FAIR      68  68 100 CALM      30.08S
KINGSTREE      FAIR      70  66  88 CALM      30.08S
ORANGEBURG     CLEAR     70  67  90 CALM      30.08S
BARNWELL       FAIR      72  70  94 CALM      30.07F
AIKEN          FAIR      70  61  73 NE3       30.12S
MANNING        FAIR      68  68 100 S12       30.08S
COLUMBIA       CLOUDY    76  59  55 VRB3      30.08S
SUMTER         CLEAR     69  59  69 NE5       30.07S
FLORENCE       CLEAR     71  60  68 N8        30.09S
MYRTLE BEACH   CLOUDY    72  68  87 CALM      30.08
N MYRTLE BEACH MOCLDY    73  66  78 N5        30.07S

$$

GAZ063-065-086>088-099>101-113>116-118-119-134>141-150-280600-
...SOUTHEAST GEORGIA...

CITY           SKY/WX    TMP DP  RH WIND       PRES   REMARKS
SAVANNAH ARPT  CLOUDY    73  68  84 N3        30.06S
HUNTER AAF     PTCLDY    73  70  89 CALM      30.03S
FORT STEWART   CLOUDY    71  68  91 CALM      30.04S
STATESBORO     MOCLDY    73  73 100 CALM      30.07S
SYLVANIA       MOCLDY    73  73 100 CALM      30.08S
CLAXTON        FAIR      70  69  98 CALM      30.07S

...CSRA...CENTRAL AND FAR SOUTHEAST GEORGIA...

CITY           SKY/WX    TMP DP  RH WIND       PRES   REMARKS
THOMSON        CLEAR     67  63  87 CALM      30.14S
AUGUSTA-BUSH   CLEAR     70  67  90 CALM      30.07S
AUGUSTA-DANIEL CLEAR     77  58  51 CALM      30.08F
SWAINSBORO     FAIR      73  70  88 CALM      30.08S
VIDALIA        CLOUDY    73  70  88 CALM      30.07S
EASTMAN        FAIR      71  71 100 CALM      30.10S
HAZLEHURST       N/A     72  72 100 CALM      30.06S
ALMA           MOCLDY    71  69  93 N3        30.06S FOG
WAYCROSS       CLOUDY    73  73 100 CALM      30.05S FOG
JESUP          FAIR      72  68  88 CALM      30.06S
BAXLEY         FAIR      72  72 100 CALM      30.06S
BRUNSWICK      CLOUDY    72  72 100 CALM      30.05F
SAINT SIMONS   MOCLDY    75  73  93 N6        30.03F

$$

SCZ027-028-034-036>038-045-046-048>050-GAZ119-141-280600-
...LAKE AND SUPPLEMENTAL COASTAL OBSERVATIONS...

STATION/POSITION TIME  TEMP    WIND        PRES    WAVE   SWELL
                       AIR SEA DIR/SP/G            HT/PER HT/PER/DIR
                 (UTC) (F)     (DEG/KT/KT) (MB)    (FT/S) (FT/S/D)
WINYAH BAY       0345   72     320/  4     1018.0
LAKE MURRAY      0420   74      40/  3/  6 1017.9
ACE BASIN NERRS  0345   72        CALM     1018.0
FORT PULASKI     0448   78 83  360/  6/  7 1017.9S
SAPELO ISLAND    0400   74        CALM     1017.0

$$

ANZ835-935-AMZ111-154-330-350-352-354-370-450-454-472-280600-
...C-MAN AND BUOY OBSERVATIONS...

STATION/POSITION TIME  TEMP    WIND        PRES    WAVE   SWELL
                       AIR SEA DIR/SP/G            HT/PER HT/PER/DIR
                 (UTC) (F)     (DEG/KT/KT) (MB)    (FT/S) (FT/S/D)
BUOY 41004       0450   80 81   50/  2/  4 1017.1S   2/ 8   2/110/ 8
BUOY 41008       0350   78 82   CALM  /  2 1016.9    2/ 4   2/ 70/ 4
FOLLY BEACH CMAN 0500   79        CALM     1018.5R
CAPERS NEARSHORE 0408   85 83  200/  2/  2 1017.7R
FRIPP NEARSHORE  0408   80 83  150/  4/  8 1017.2R


STATION/POSITION TIME  TEMP    WIND        PRES    WAVE   SWELL
                       AIR SEA DIR/SP/G            HT/PER HT/PER/DIR
                 (UTC) (F)     (DEG/KT/KT) (MB)    (FT/S) (FT/S/D)
5E ST. MARYS GA  0430      80                N/A     2/ 4
FRYING PAN BUOY  0450   79 80  300/  4/  6 1017.8R   2/ 8   2/110/ 8
BUOY 41025       0450   80 81  290/ 14/ 16 1017.0R   2/ 6   2/150/ 7
CAPE LOOKOUT NC  0500   77     350/ 12/ 15 1017.9R
BUOY 41002       0350   78 80  200/  4/  6 1017.5    3/ 6   3/180/ 6
BUOY 41010       0450   82 83  170/  6/  8 1016.5F   3/ 7   3/120/ 7
ST AUGUSTINE FL  0500   78 79   80/  2/  3 1016.6R


$$




USA.gov is the U.S. government's official web portal to all federal, state and local government web resources and services.